EN

Hourly Weather Amarapura

Today, 16 January, Saturday

Time Temperature Precipitation Wind Pressure Humidity
00:00 +20°C° 0 mm 1 mps 751 mmHg 55%
01:00 +20°C° 0 mm 1 mps 751 mmHg 57%
02:00 +19°C° 0 mm 1 mps 751 mmHg 58%
03:00 +19°C° 0 mm 1 mps 751 mmHg 60%
04:00 +19°C° 0 mm 1 mps 752 mmHg 61%
05:00 +17°C° 0 mm 2 mps 752 mmHg 62%
06:00 +17°C° 0 mm 2 mps 752 mmHg 64%
07:00 +20°C° 0 mm 1 mps 752 mmHg 58%
08:00 +23°C° 0 mm 1 mps 753 mmHg 52%
09:00 +25°C° 0 mm 1 mps 753 mmHg 47%
10:00 +26°C° 0 mm 2 mps 752 mmHg 42%
11:00 +28°C° 0 mm 2 mps 752 mmHg 38%
12:00 +30°C° 0 mm 3 mps 751 mmHg 34%
13:00 +30°C° 0 mm 3 mps 751 mmHg 32%
14:00 +31°C° 0 mm 2 mps 750 mmHg 29%
15:00 +31°C° 0 mm 2 mps 749 mmHg 27%
16:00 +29°C° 0 mm 2 mps 749 mmHg 32%
17:00 +26°C° 0 mm 1 mps 750 mmHg 37%
18:00 +24°C° 0 mm 1 mps 750 mmHg 42%
19:00 +23°C° 0 mm 1 mps 750 mmHg 44%
20:00 +22°C° 0 mm 1 mps 751 mmHg 46%
21:00 +21°C° 0 mm 1 mps 751 mmHg 48%
22:00 +21°C° 0 mm 1 mps 751 mmHg 50%
23:00 +20°C° 0 mm 1 mps 751 mmHg 51%

Tomorrow, 17 January, Sunday

Time Temperature Precipitation Wind Pressure Humidity
00:00 +20°C° 0 mm 1 mps 751 mmHg 53%
01:00 +19°C° 0 mm 1 mps 751 mmHg 54%
02:00 +19°C° 0 mm 1 mps 752 mmHg 55%
03:00 +19°C° 0 mm 1 mps 752 mmHg 57%
04:00 +18°C° 0 mm 1 mps 752 mmHg 58%
05:00 +18°C° 0 mm 1 mps 753 mmHg 60%
06:00 +18°C° 0 mm 1 mps 753 mmHg 61%
07:00 +20°C° 0 mm 1 mps 754 mmHg 55%
08:00 +23°C° 0 mm 1 mps 755 mmHg 50%
09:00 +25°C° 0 mm 1 mps 756 mmHg 44%
10:00 +27°C° 0 mm 1 mps 755 mmHg 41%
11:00 +28°C° 0 mm 1 mps 755 mmHg 38%
12:00 +30°C° 0 mm 1 mps 754 mmHg 35%
13:00 +30°C° 0 mm 1 mps 753 mmHg 33%
14:00 +31°C° 0 mm 1 mps 753 mmHg 32%
15:00 +31°C° 0 mm 1 mps 752 mmHg 31%
16:00 +29°C° 0 mm 1 mps 752 mmHg 35%
17:00 +27°C° 0 mm 1 mps 753 mmHg 40%
18:00 +25°C° 0 mm 1 mps 753 mmHg 45%
19:00 +24°C° 0 mm 1 mps 754 mmHg 48%
20:00 +23°C° 0 mm 1 mps 754 mmHg 51%
21:00 +22°C° 0 mm 1 mps 755 mmHg 54%
22:00 +21°C° 0 mm 1 mps 755 mmHg 56%
23:00 +21°C° 0 mm 1 mps 755 mmHg 57%

Day after tomorrow, 18 January, Monday

Time Temperature Precipitation Wind Pressure Humidity
00:00 +20°C° 0 mm 1 mps 755 mmHg 59%
01:00 +20°C° 0 mm 1 mps 755 mmHg 60%
02:00 +20°C° 0 mm 1 mps 754 mmHg 61%
03:00 +19°C° 0 mm 1 mps 754 mmHg 62%
04:00 +19°C° 0 mm 1 mps 754 mmHg 63%
05:00 +17°C° 0 mm 0 mps 755 mmHg 65%
06:00 +16°C° 0 mm 0 mps 755 mmHg 66%
07:00 +19°C° 0 mm 0 mps 755 mmHg 60%
08:00 +21°C° 0 mm 0 mps 756 mmHg 53%
09:00 +23°C° 0 mm 0 mps 756 mmHg 47%
10:00 +27°C° 0 mm 1 mps 755 mmHg 43%
11:00 +29°C° 0 mm 1 mps 755 mmHg 38%
12:00 +31°C° 0 mm 1 mps 754 mmHg 34%
13:00 +31°C° 0 mm 2 mps 753 mmHg 33%
14:00 +32°C° 0 mm 2 mps 753 mmHg 32%
15:00 +32°C° 0 mm 2 mps 752 mmHg 31%
16:00 +30°C° 0 mm 2 mps 752 mmHg 36%
17:00 +28°C° 0 mm 1 mps 752 mmHg 41%
18:00 +26°C° 0 mm 1 mps 752 mmHg 45%
19:00 +25°C° 0 mm 1 mps 752 mmHg 48%
20:00 +24°C° 0 mm 1 mps 752 mmHg 50%
21:00 +23°C° 0 mm 1 mps 753 mmHg 52%
22:00 +23°C° 0 mm 1 mps 753 mmHg 54%
23:00 +22°C° 0 mm 1 mps 753 mmHg 56%

19 January, Tuesday

Time Temperature Precipitation Wind Pressure Humidity
00:00 +22°C° 0 mm 1 mps 752 mmHg 57%
01:00 +21°C° 0 mm 1 mps 752 mmHg 59%
02:00 +20°C° 0 mm 2 mps 752 mmHg 60%
03:00 +20°C° 0 mm 2 mps 752 mmHg 62%
04:00 +19°C° 0 mm 2 mps 752 mmHg 63%
05:00 +19°C° 0 mm 2 mps 752 mmHg 63%
06:00 +19°C° 0 mm 2 mps 753 mmHg 64%
07:00 +21°C° 0 mm 3 mps 753 mmHg 58%
08:00 +25°C° 0 mm 3 mps 753 mmHg 52%
09:00 +27°C° 0 mm 4 mps 754 mmHg 47%
10:00 +29°C° 0 mm 4 mps 753 mmHg 43%
11:00 +30°C° 0 mm 5 mps 753 mmHg 39%
12:00 +33°C° 0 mm 5 mps 752 mmHg 36%
13:00 +33°C° 0 mm 5 mps 751 mmHg 35%
14:00 +33°C° 0 mm 5 mps 751 mmHg 35%
15:00 +33°C° 0 mm 5 mps 750 mmHg 35%
16:00 +30°C° 0 mm 4 mps 750 mmHg 39%
17:00 +29°C° 0 mm 3 mps 750 mmHg 43%
18:00 +27°C° 0 mm 2 mps 750 mmHg 47%
19:00 +27°C° 0 mm 2 mps 750 mmHg 49%
20:00 +26°C° 0 mm 2 mps 751 mmHg 51%
21:00 +25°C° 0 mm 2 mps 751 mmHg 53%
22:00 +24°C° 0 mm 3 mps 751 mmHg 55%
23:00 +22°C° 0 mm 3 mps 751 mmHg 58%

20 January, Wednesday

Time Temperature Precipitation Wind Pressure Humidity
00:00 +21°C° 0 mm 3 mps 751 mmHg 60%
01:00 +21°C° 0 mm 3 mps 751 mmHg 63%
02:00 +20°C° 0 mm 3 mps 751 mmHg 65%
03:00 +20°C° 0 mm 3 mps 751 mmHg 67%
04:00 +19°C° 0 mm 3 mps 752 mmHg 70%
05:00 +19°C° 0 mm 2 mps 752 mmHg 73%
06:00 +18°C° 0 mm 2 mps 752 mmHg 75%
07:00 +20°C° 0 mm 3 mps 753 mmHg 69%
08:00 +22°C° 0 mm 3 mps 753 mmHg 63%
09:00 +25°C° 0 mm 4 mps 754 mmHg 57%
10:00 +27°C° 0 mm 4 mps 753 mmHg 51%
11:00 +28°C° 0 mm 4 mps 753 mmHg 46%
12:00 +30°C° 0 mm 4 mps 752 mmHg 41%
13:00 +30°C° 0 mm 4 mps 752 mmHg 38%
14:00 +30°C° 0 mm 3 mps 751 mmHg 36%
15:00 +31°C° 0 mm 3 mps 751 mmHg 33%
16:00 +29°C° 0 mm 2 mps 751 mmHg 37%
17:00 +27°C° 0 mm 1 mps 751 mmHg 41%
18:00 +24°C° 0 mm 1 mps 751 mmHg 45%
19:00 +24°C° 0 mm 1 mps 752 mmHg 47%
20:00 +23°C° 0 mm 1 mps 752 mmHg 49%
21:00 +22°C° 0 mm 1 mps 752 mmHg 51%
22:00 +22°C° 0 mm 1 mps 752 mmHg 53%
23:00 +21°C° 0 mm 1 mps 752 mmHg 54%

21 January, Thursday

Time Temperature Precipitation Wind Pressure Humidity
00:00 +21°C° 0 mm 1 mps 752 mmHg 56%
01:00 +20°C° 0 mm 1 mps 752 mmHg 58%
02:00 +20°C° 0 mm 1 mps 752 mmHg 59%
03:00 +19°C° 0 mm 1 mps 752 mmHg 60%
04:00 +19°C° 0 mm 1 mps 752 mmHg 62%
05:00 +19°C° 0 mm 1 mps 752 mmHg 63%
06:00 +18°C° 0 mm 1 mps 753 mmHg 65%
07:00 +20°C° 0 mm 1 mps 753 mmHg 58%
08:00 +23°C° 0 mm 1 mps 753 mmHg 52%
09:00 +25°C° 0 mm 1 mps 754 mmHg 45%
10:00 +27°C° 0 mm 1 mps 753 mmHg 42%
11:00 +28°C° 0 mm 1 mps 753 mmHg 39%
12:00 +30°C° 0 mm 2 mps 752 mmHg 35%
13:00 +30°C° 0 mm 2 mps 751 mmHg 34%
14:00 +30°C° 0 mm 2 mps 751 mmHg 33%
15:00 +31°C° 0 mm 2 mps 750 mmHg 32%
16:00 +29°C° 0 mm 2 mps 750 mmHg 36%
17:00 +27°C° 0 mm 2 mps 750 mmHg 41%
18:00 +25°C° 0 mm 2 mps 751 mmHg 46%
19:00 +24°C° 0 mm 2 mps 751 mmHg 47%
20:00 +23°C° 0 mm 2 mps 752 mmHg 49%
21:00 +23°C° 0 mm 2 mps 752 mmHg 50%
22:00 +21°C° 0 mm 2 mps 752 mmHg 50%
23:00 +21°C° 0 mm 2 mps 752 mmHg 51%
Show more